Résultats de la compétition "Régionale Mormal" du 01-02-2009 organisée par le club 5907
     
  Télécharger le fichier CSV.  
     
     

 Circuit "A"

Licence Nom Prénom Temps CN
précédent
Score sur
la course
Différence
11342LECLERCThomas0:57:2871356420-715
14372DUBOISRemi0:59:4264116180-231
9629SMIRNOVKonstantin1:05:2957565634-122
1233CREFCOEURPhilippe1:05:4960455605-440
722FLICOTEAUXRaphael1:07:1261615490-671
13278TAELEMANSPhilippe1:11:3854945150-344
10869DENIERSimon1:14:43N/A4938N/A
20178TSIRTSIKOLOUArnaud1:15:1739654901+936
13756FLANDRINGautier1:16:3457414818-923
15245BARTOSThomas1:17:5537624735+973
15895LACHAUMEPatrick1:19:5937734613+840
17574LEQUINTRémi1:20:0157924611-1181
6747GORGUEJean1:20:1242854600+315
13757PRINSGregory1:20:3049724583-389
15831GOLECCharly1:20:3028364583+1747
11077MAUCONDUITArnaud1:21:2946434528-115
18651DROGOULMatthieu1:21:5239034506+603
16397CLAIRETRichard1:23:4836424402+760
11524CAROULLEYannick1:34:39N/A3898N/A
13271CZERNIAKJerome1:36:3424853820+1335
16961PARMENTFabien1:49:3526103367+757
12466BUCKMANFranckN/A34300-3430

  Indice de confiance du circuit (moyenne des différences entre CN et score sur la course des 3 à 10 premiers) : 497




 Circuit "B"

Licence Nom Prénom Temps CN
précédent
Score sur
la course
Différence
9874AVEDIKIANVincent0:55:2754514896-555
20040GOUVERNEURAntoine0:58:1742184658+440
14227DESRUMAUXMarie1:00:4448064470-336
20648MALAKMaxence1:01:1421094433+2324
1814LERICHEFranck1:01:5346204387-233
17572TESSIERPatrick1:03:4135214263+742
11434SAUVAGEElsa1:04:0044374242-195
7215LEROYJacques1:05:5543894118-271
19699GOBERTAlain1:06:1633484097+749
8952LEMAIRECecilia1:11:35N/A3792N/A
2892MOULIERECamille1:12:0144873769-718
9427LERICHEClotilde1:12:1046713762-909
8445FINASCeline1:12:4349403733-1207
20405CHAPUSStanislas1:13:56N/A3672N/A
16229VERCAUTERENM-Claude1:14:3833373637+300
16399GENCEEric1:17:1140353517-518
18300GOURLAINVincent1:21:4531073321+214
13838BOUTINDominique1:22:2134683296-172
17899DEPERSINIsabelle1:42:2929642649-315
13272CZERNIAKSidonie1:48:3520922500+408
18786SCHIMPFLaurentN/A39080-3908

  Indice de confiance du circuit (moyenne des différences entre CN et score sur la course des 3 à 10 premiers) : 489




 Circuit "C"

Licence Nom Prénom Temps CN
précédent
Score sur
la course
Différence
1947POULAINJoel0:38:5553125116-196
13669DESREUMAUXArthur0:42:2557664694-1072
14665SZYMANOWSKIValentin0:47:1534174213+796
16281BIZOTLaurent0:47:2339374202+265
20214PECQUEURFlorian0:49:2144674034-433
9165BAILLEULJ-Paul0:49:4640364000-36
14900PRESSONBernard0:50:1334893964+475
15170DESREUMAUXVictor0:50:4238923927+35
12963CASTIERPhilippe0:52:3641753785-390
8947BOULANGERPatrick0:53:1338953741-154
13088GRENOUILLATJ-Louis0:53:3337743718-56
16398GRIMBERTHerve0:53:3832533712+459
17577FACHAUXAngélique0:57:0236363491-145
9523WULLUSJ-Noel0:57:5035963442-154
13645LEGRANDMurielle1:00:5221673271+1104
19241VADURELPauline1:02:0434743208-266
13270ROUXCatherine1:02:2536053190-415
21056VAN HONACKERPascal1:04:50N/A3071N/A
19411DUBOISXavier1:05:2441253044-1081
20677ANSCUTTEValentin1:05:38N/A3033N/A
20482SELVEJean-luc1:10:3028372824-13
17345LARGILLERELucien1:14:2047732678-2095
9164TORZDidier1:14:5332622659-603
1948POULAINOdile1:15:2626952639-56
20800RAVETSidoine1:16:31N/A2602N/A
9406AVEDIKIANRachel1:25:0329592341-618
19155GOURLAINMarguerite-marie1:28:0320202261+241
13035PENANGUERCatherine1:29:0831082234-874
20722MOREAU-DESCOINGSFrançois1:35:07N/A2093N/A
5137AVEDIKIANNicolasN/A40110-4011
7200SZYMANOWSKIFabriceN/A46250-4625

  Indice de confiance du circuit (moyenne des différences entre CN et score sur la course des 3 à 10 premiers) : 227




 Circuit "D"

Licence Nom Prénom Temps CN
précédent
Score sur
la course
Différence
16143WANTIERLoic0:40:5337974122+325
16227VERCAUTERENFrancois0:41:1127234092+1369
19240MAZYFrançois-rémi0:41:4437974038+241
18312GERBEAUXNathanaëlle0:47:4336063532-74
20195DESOOMERJean-jacques0:48:19N/A3488N/A
2878PATURETBertrand0:48:2942983476-822
17067MANIEREMarie0:48:4546283457-1171
5597EJSMONTJean0:49:1244563425-1031
20803LAHOUSSENathan0:52:06N/A3235N/A
13430FAUVETChrystelle0:53:5335783128-450
20177WATRELOTJulien0:56:5817062958+1252
10639BOULANGERIsabelle0:59:5129452816-129
21057DECEUNINCKColette1:00:51N/A2770N/A
16226VERCAUTERENThomas1:02:1932922704-588
16205HUMBERTCLAUDEJ-Paul1:07:1732762505-771
20029GOBERTAlexandre1:07:5222352483+248
20215SIXPauline1:11:4816552347+692
20676DELINSELLEAlexis1:12:56N/A2311N/A
20211CREPIEUXRémy1:12:5823072310+3
20840DUBUISSONRony1:15:55N/A2220N/A
10081TORZ-DRUONMagali1:16:4427182196-522
21160LEGRANDPauline1:25:36N/A1969N/A
15247SANCHEZMarlene1:25:3835651968-1597
5421LOTERIEJ-FrancoisN/A57040-5704

  Indice de confiance du circuit (moyenne des différences entre CN et score sur la course des 3 à 10 premiers) : 457




 Circuit "E"

Licence Nom Prénom Temps CN
précédent
Score sur
la course
Différence
20604SAUVAGEAnna0:44:52N/A3345N/A
20802HIDOUXLéa0:47:52N/A3136N/A
18299GOURLAINMathilde0:48:2518793100+1221
14245RICHARDNicole0:49:4931363013-123
17344LARGILLEREEugenie0:53:0128262831+5
13087GRENOUILLATAnnick0:54:2133952762-633
20200LEPERQUEOphelie1:02:3430172399-618
20224SELINGUECécile1:09:5718622146+284
15885GALETClement1:11:43N/A2093N/A
20572GUILMAINMelanie1:16:15N/A1968N/A
14164EJSMONTMartine1:40:3915611491-70

  Indice de confiance du circuit (moyenne des différences entre CN et score sur la course des 3 à 10 premiers) : 595




 Circuit "F"

Licence Nom Prénom Temps CN
précédent
Score sur
la course
Différence
16228VERCAUTERENAntoine0:31:4433014266+965
9172POULAINGael0:45:4427732960+187
18213LARGILLÈRENicolas0:49:1624772748+271
20684STRATMAINSLudovic1:09:26N/A1950N/A
15894LUDEWIG-JAMESCarol1:18:5123831717-666
21224SIXThibaut1:41:30N/A1334N/A
21156GOBERTJeanne1:52:50N/A1200N/A
20952LOUCHARTVictorN/AN/A0N/A
19759GOURLAINClémentN/A14770-1477

  Indice de confiance du circuit (moyenne des différences entre CN et score sur la course des 3 à 10 premiers) : 526




 Circuit "Jal"

Licence Nom Prénom Temps CN
précédent
Score sur
la course
Différence
19744VERCAUTERENClémence0:33:29N/A1600N/A
21270MAUCONDUITAlexia0:48:42N/A1100N/A
21269MAUCONDUITMathéo0:50:14N/A1066N/A

  Indice de confiance du circuit (moyenne des différences entre CN et score sur la course des 3 à 10 premiers) : 216






 Retour